Volver al catálogo

STARLINK-35579

ActivoComunicacionesVLEO
NORAD 66562·PAYLOAD·🇺🇸 United States

Lanzado Nov 21, 2025 desde Cape Canaveral Space Force Station

Loading…

Próximos Pases (próximas 24 horas)

TLE

ActualizadoSource: CelesTrak SupGP

Época: Sep 14, 2026, 23:04 UTC

1 66562C 25268F   26257.96159722 -.00010211  00000+0 -36980-3 0  2573
2 66562  43.0041 358.1580 0001907 274.5676 185.6480 15.27586973    19

Sigue STARLINK-35579 en tiempo real con AllMySat

Download on the App Store